Вернуться в каталог

CARBONITE 1

АктивенНаукаSSO
NORAD 40718·PAYLOAD·🇬🇧 United Kingdom

Запущен Jul 10, 2015 с Satish Dhawan Space Centre

Loading…

Ближайшие Пролёты (ближайшие 24 часа)

TLE

СвежийSource: Space-Track

Эпоха: Sep 14, 2026, 22:41 UTC

1 40718U 15032D   26257.94523816  .00000875  00000-0  11159-3 0  9991
2 40718  97.6560  72.3027 0014721   5.8194 354.3189 14.83821588602658

Отслеживайте CARBONITE 1 в реальном времени с AllMySat

Download on the App Store